Regional Weather Roundup
Issued by NWS

Home | Current Version | Previous Version | Text Only | Print | Product List | Glossary Off
Versions: 1 2 3 4 5 6 7 8 9 10 11 12 13 14 15 16 17 18 19 20 21 22 23 24 25 26 27 28 29 30 31 32 33 34 35 36 37 38 39 40 41 42 43 44 45 46 47 48 49 50

000
ASUS45 KTFX 220410
RWRMT
MONTANA REGIONAL WEATHER ROUNDUP
NATIONAL WEATHER SERVICE GREAT FALLS MT
1000 PM MDT THU MAY 21 2015

NOTE: "FAIR" INDICATES FEW OR NO CLOUDS BELOW 12000 FEET WITH NO
SIGNIFICANT WEATHER AND/OR OBSTRUCTIONS TO VISIBILITY.

MTZ001>007-043-220500-
WEST OF THE DIVIDE

CITY           SKY/WX    TMP DP  RH WIND       PRES   REMARKS
KALISPELL      PTCLDY    65  32  29 N7        29.85R
MISSOULA       CLOUDY    60  45  57 SE7       29.92R
BUTTE          MOCLDY    49  41  74 NW7       30.00S
MULLAN PASS    MOCLDY    54  32  43 E6        29.97R
DEER LODGE       N/A     52  43  71 W7        30.02S
EUREKA           N/A     72  34  25 NE12G17   29.83R
HAMILTON         N/A     55  48  76 SE3       29.92R
LIBBY            N/A     64  37  36 SE3       29.83R
RONAN            N/A     59  43  55 CALM      29.93R
THOMPSON FALLS   N/A     70  42  36 E9        29.87R
$$

MTZ008-052>055-220500-
SOUTHWEST MONTANA

CITY           SKY/WX    TMP DP  RH WIND       PRES   REMARKS
BOZEMAN        PTCLDY    53  43  68 SE10      29.97R
DILLON         CLOUDY    54  43  66 E3        29.96R
W YELLOWSTONE  PTCLDY    45  37  76 E7        30.03R
THREE FORKS      N/A     56  56 100 CALM      29.97R
TWIN BRIDGES     N/A     55  40  57 N6        29.96S
$$

MTZ009-010-012-014-046-048-049-054-220500-
EAST SLOPES AND CENTRAL MONTANA

CITY           SKY/WX    TMP DP  RH WIND       PRES   REMARKS
CUT BANK       CLEAR     57  35  43 E12       29.97R
GREAT FALLS    CLEAR     56  42  59 S5        29.94S
MALMSTROM AFB  MOCLDY    58  40  52 SE12      29.94S
HELENA         LGT RAIN  57  47  69 S9        29.94F
CONRAD           N/A     57  37  47 NE8       29.99S
$$

MTZ011-013-016-021-045-047-050-051-220500-
NORTH CENTRAL MONTANA

CITY           SKY/WX    TMP DP  RH WIND       PRES   REMARKS
HAVRE          CLEAR     53  32  44 E7        29.99R
LEWISTOWN      CLEAR     51  34  52 SE7       30.01R
N BAR RANCH    CLOUDY    52  37  58 E7        30.06R
CHINOOK          N/A     55  34  44 E6        30.00S
FORT BENTON      N/A     63  30  29 E15G25    29.95S
$$

MTZ017>020-022>027-061-062-220500-
NORTHEAST MONTANA

CITY           SKY/WX    TMP DP  RH WIND       PRES   REMARKS
GLASGOW        CLEAR     54  33  45 E12       30.06R
JORDAN           N/A     56  27  32 SE10      30.05R
SIDNEY         CLEAR     54  36  50 CALM      30.10S
WOLF POINT     CLEAR     52  38  58 NE6       30.08R
MALTA            N/A     53  35  50 CALM      30.01R
PLENTYWOOD       N/A     59  30  33 NE8       30.10R
POPLAR           N/A     59  36  41 E7        30.09R
$$

MTZ028>42-056>058-220500-
SOUTHCENTRAL AND SOUTHEAST MONTANA

CITY           SKY/WX    TMP DP  RH WIND       PRES   REMARKS
BAKER          CLEAR     46  32  58 SE7       30.13R
BILLINGS       PTCLDY    57  39  51 E12       29.99S
LIVINGSTON     MOCLDY    51  43  74 SE14      29.99S
MILES CITY     CLEAR     58  27  30 E9        30.06R
BIG TIMBER       N/A     52  43  71 W3        30.02R
EKALAKA          N/A     48  27  44 SE6       30.09R
FORSYTH          N/A     57  27  30 E9        30.03S
LAUREL           N/A     56  38  50 NE7       29.98R
ROUNDUP          N/A     57  37  47 CALM      29.93R
$$

REGIONAL REPORTS...DAKOTAS

CITY           SKY/WX    TMP DP  RH WIND       PRES   REMARKS
WILLISTON      CLEAR     59  34  39 SE5       30.10R
MINOT          FAIR      56  39  53 SE5       30.12R
DICKINSON      CLEAR     51  34  52 S6        30.12R
BEACH          FAIR      43  36  75 S7        30.14R
CROSBY         FAIR      54  37  54 SE10      30.12S
WATFORD CITY   FAIR      55  32  41 E8        30.09S
BISMARCK       CLOUDY    58  44  60 NE8       30.13R
GRAND FORKS    CLEAR     45  40  82 CALM      30.12R
FARGO          CLEAR     55  42  61 N5        30.12R
BUFFALO SD       N/A     50  31  48 SE14      30.08R
RAPID CITY     CLEAR     49  42  77 E3        30.13S
$$

REGIONAL REPORTS...WYOMING/IDAHO/WASHINGTON

CITY           SKY/WX    TMP DP  RH WIND       PRES   REMARKS
GILLETTE       PTCLDY    48  41  76 SE13      30.08S
SHERIDAN       PTCLDY    53  42  66 SE16G23   30.01S
BUFFALO WY     CLOUDY    50  43  77 S9        30.08R
CODY           CLOUDY    50  43  76 W9        30.01S
YELLOWSTONE LA   N/A     38  34  85 CALM      30.09R
IDAHO FALLS    CLOUDY    54  46  74 CALM      29.94R
SALMON         MOCLDY    55  45  67 CALM      29.90R
BOISE          MOCLDY    63  45  51 SE5       29.83R
SPOKANE        CLOUDY    69  47  45 SW9       29.81R
$$

REGIONAL REPORTS...ALBERTA

CITY           SKY/WX    TMP DP  RH WIND       PRES   REMARKS
EDMONTON       CLEAR     57  28  33 E3        29.93S
CALGARY        PTCLDY    59  25  27 SE10      29.97R
LETHBRIDGE     CLEAR     55  30  38 SE9       29.95R
MEDICINE HAT   CLEAR     61  27  27 SE10      29.99R
$$

REGIONAL REPORTS...SASKATCHEWAN

CITY           SKY/WX    TMP DP  RH WIND       PRES   REMARKS
SWIFT CURRENT  CLEAR     52  28  40 SE9       30.07R
REGINA         PTCLDY    57  32  38 S8        30.09R
SASKATOON      CLEAR     59  32  36 S8        30.06S
$$


USA.gov is the U.S. government's official web portal to all federal, state and local government web resources and services.